Year,Month,Day,Hour,Minute,Value (Times are PST for barometer in hPa)
2016,03,16,00,00,1024.15
2016,03,16,00,01,1024.11
2016,03,16,00,02,1024.15
2016,03,16,00,03,1024.18
2016,03,16,00,04,1024.18
2016,03,16,00,05,1024.18
2016,03,16,00,06,1024.21
2016,03,16,00,07,1024.18
2016,03,16,00,08,1024.18
2016,03,16,00,09,1024.21
2016,03,16,00,10,1024.21
2016,03,16,00,11,1024.21
2016,03,16,00,12,1024.21
2016,03,16,00,13,1024.25
2016,03,16,00,14,1024.21
2016,03,16,00,15,1024.21
2016,03,16,00,16,1024.25
2016,03,16,00,17,1024.21
2016,03,16,00,18,1024.21
2016,03,16,00,19,1024.21
2016,03,16,00,20,1024.21
2016,03,16,00,21,1024.18
2016,03,16,00,22,1024.18
2016,03,16,00,23,1024.21
2016,03,16,00,24,1024.18
2016,03,16,00,25,1024.15
2016,03,16,00,26,1024.21
2016,03,16,00,27,1024.25
2016,03,16,00,28,1024.21
2016,03,16,00,29,1024.21
2016,03,16,00,30,1024.15
2016,03,16,00,31,1024.15
2016,03,16,00,32,1024.15
2016,03,16,00,33,1024.08
2016,03,16,00,34,1024.08
2016,03,16,00,35,1024.08
2016,03,16,00,36,1024.04
2016,03,16,00,37,1024.04
2016,03,16,00,38,1024.08
2016,03,16,00,39,1024.08
2016,03,16,00,40,1024.08
2016,03,16,00,41,1024.04
2016,03,16,00,42,1024.08
2016,03,16,00,43,1024.08
2016,03,16,00,44,1024.11
2016,03,16,00,45,1024.18
2016,03,16,00,46,1024.18
2016,03,16,00,47,1024.21
2016,03,16,00,48,1024.21
2016,03,16,00,49,1024.21
2016,03,16,00,50,1024.28
2016,03,16,00,51,1024.25
2016,03,16,00,52,1024.28
2016,03,16,00,53,1024.25
2016,03,16,00,54,1024.28
2016,03,16,00,55,1024.18
2016,03,16,00,56,1024.21
2016,03,16,00,57,1024.21
2016,03,16,00,58,1024.25
2016,03,16,00,59,1024.25
2016,03,16,01,00,1024.25
2016,03,16,01,01,1024.28
2016,03,16,01,02,1024.28
2016,03,16,01,03,1024.32
2016,03,16,01,04,1024.35
2016,03,16,01,05,1024.35
2016,03,16,01,06,1024.38
2016,03,16,01,07,1024.38
2016,03,16,01,08,1024.42
2016,03,16,01,09,1024.45
2016,03,16,01,10,1024.48
2016,03,16,01,11,1024.45
2016,03,16,01,12,1024.45
2016,03,16,01,13,1024.48
2016,03,16,01,14,1024.48
2016,03,16,01,15,1024.52
2016,03,16,01,16,1024.52
2016,03,16,01,17,1024.55
2016,03,16,01,18,1024.62
2016,03,16,01,19,1024.62
2016,03,16,01,20,1024.59
2016,03,16,01,21,1024.59
2016,03,16,01,22,1024.62
2016,03,16,01,23,1024.65
2016,03,16,01,24,1024.62
2016,03,16,01,25,1024.65
2016,03,16,01,26,1024.65
2016,03,16,01,27,1024.69
2016,03,16,01,28,1024.62
2016,03,16,01,29,1024.62
2016,03,16,01,30,1024.62
2016,03,16,01,31,1024.59
2016,03,16,01,32,1024.55
2016,03,16,01,33,1024.59
2016,03,16,01,34,1024.59
2016,03,16,01,35,1024.59
2016,03,16,01,36,1024.55
2016,03,16,01,37,1024.65
2016,03,16,01,38,1024.62
2016,03,16,01,39,1024.65
2016,03,16,01,40,1024.65
2016,03,16,01,41,1024.72
2016,03,16,01,42,1024.69
2016,03,16,01,43,1024.65
2016,03,16,01,44,1024.65
2016,03,16,01,45,1024.69
2016,03,16,01,46,1024.65
2016,03,16,01,47,1024.62
2016,03,16,01,48,1024.62
2016,03,16,01,49,1024.59
2016,03,16,01,50,1024.62
2016,03,16,01,51,1024.59
2016,03,16,01,52,1024.59
2016,03,16,01,53,1024.55
2016,03,16,01,54,1024.55
2016,03,16,01,55,1024.59
2016,03,16,01,56,1024.55
2016,03,16,01,57,1024.62
2016,03,16,01,58,1024.62
2016,03,16,01,59,1024.65
2016,03,16,02,00,1024.65
2016,03,16,02,01,1024.65
2016,03,16,02,02,1024.65
2016,03,16,02,03,1024.76
2016,03,16,02,04,1024.76
2016,03,16,02,05,1024.76
2016,03,16,02,06,1024.76
2016,03,16,02,07,1024.76
2016,03,16,02,08,1024.72
2016,03,16,02,09,1024.72
2016,03,16,02,10,1024.69
2016,03,16,02,11,1024.72
2016,03,16,02,12,1024.72
2016,03,16,02,13,1024.76
2016,03,16,02,14,1024.72
2016,03,16,02,15,1024.72
2016,03,16,02,16,1024.76
2016,03,16,02,17,1024.76
2016,03,16,02,18,1024.72
2016,03,16,02,19,1024.76
2016,03,16,02,20,1024.72
2016,03,16,02,21,1024.72
2016,03,16,02,22,1024.72
2016,03,16,02,23,1024.69
2016,03,16,02,24,1024.72
2016,03,16,02,25,1024.69
2016,03,16,02,26,1024.72
2016,03,16,02,27,1024.72
2016,03,16,02,28,1024.69
2016,03,16,02,29,1024.76
2016,03,16,02,30,1024.72
2016,03,16,02,31,1024.79
2016,03,16,02,32,1024.79
2016,03,16,02,33,1024.82
2016,03,16,02,34,1024.79
2016,03,16,02,35,1024.79
2016,03,16,02,36,1024.79
2016,03,16,02,37,1024.79
2016,03,16,02,38,1024.76
2016,03,16,02,39,1024.76
2016,03,16,02,40,1024.76
2016,03,16,02,41,1024.79
2016,03,16,02,42,1024.82
2016,03,16,02,43,1024.82
2016,03,16,02,44,1024.89
2016,03,16,02,45,1024.82
2016,03,16,02,46,1024.79
2016,03,16,02,47,1024.76
2016,03,16,02,48,1024.79
2016,03,16,02,49,1024.89
2016,03,16,02,50,1024.89
2016,03,16,02,51,1024.86
2016,03,16,02,52,1024.82
2016,03,16,02,53,1024.79
2016,03,16,02,54,1024.76
2016,03,16,02,55,1024.76
2016,03,16,02,56,1024.72
2016,03,16,02,57,1024.76
2016,03,16,02,58,1024.76
2016,03,16,02,59,1024.72
2016,03,16,03,00,1024.79
2016,03,16,03,01,1024.82
2016,03,16,03,02,1024.82
2016,03,16,03,03,1024.89
2016,03,16,03,04,1024.86
2016,03,16,03,05,1024.89
2016,03,16,03,06,1024.89
2016,03,16,03,07,1024.89
2016,03,16,03,08,1024.92
2016,03,16,03,09,1024.92
2016,03,16,03,10,1024.92
2016,03,16,03,11,1024.92
2016,03,16,03,12,1024.92
2016,03,16,03,13,1024.89
2016,03,16,03,14,1024.92
2016,03,16,03,15,1024.92
2016,03,16,03,16,1024.99
2016,03,16,03,17,1024.96
2016,03,16,03,18,1024.96
2016,03,16,03,19,1024.96
2016,03,16,03,20,1024.96
2016,03,16,03,21,1024.92
2016,03,16,03,22,1024.96
2016,03,16,03,23,1024.96
2016,03,16,03,24,1024.96
2016,03,16,03,25,1024.99
2016,03,16,03,26,1024.96
2016,03,16,03,27,1024.96
2016,03,16,03,28,1024.96
2016,03,16,03,29,1025.03
2016,03,16,03,30,1025.03
2016,03,16,03,31,1025.03
2016,03,16,03,32,1025.06
2016,03,16,03,33,1025.03
2016,03,16,03,34,1025.06
2016,03,16,03,35,1025.06
2016,03,16,03,36,1025.06
2016,03,16,03,37,1025.09
2016,03,16,03,38,1025.03
2016,03,16,03,39,1025.03
2016,03,16,03,40,1025.03
2016,03,16,03,41,1024.99
2016,03,16,03,42,1024.99
2016,03,16,03,43,1025.03
2016,03,16,03,44,1025.03
2016,03,16,03,45,1025.03
2016,03,16,03,46,1025.03
2016,03,16,03,47,1025.06
2016,03,16,03,48,1025.03
2016,03,16,03,49,1024.99
2016,03,16,03,50,1025.03
2016,03,16,03,51,1025.06
2016,03,16,03,52,1025.06
2016,03,16,03,53,1025.06
2016,03,16,03,54,1025.06
2016,03,16,03,55,1025.06
2016,03,16,03,56,1025.09
2016,03,16,03,57,1025.09
2016,03,16,03,58,1025.06
2016,03,16,03,59,1025.13
2016,03,16,04,00,1025.23
2016,03,16,04,01,1025.23
2016,03,16,04,02,1025.30
2016,03,16,04,03,1025.33
2016,03,16,04,04,1025.26
2016,03,16,04,05,1025.26
2016,03,16,04,06,1025.26
2016,03,16,04,07,1025.23
2016,03,16,04,08,1025.30
2016,03,16,04,09,1025.26
2016,03,16,04,10,1025.30
2016,03,16,04,11,1025.26
2016,03,16,04,12,1025.30
2016,03,16,04,13,1025.30
2016,03,16,04,14,1025.33
2016,03,16,04,15,1025.33
2016,03,16,04,16,1025.33
2016,03,16,04,17,1025.37
2016,03,16,04,18,1025.37
2016,03,16,04,19,1025.33
2016,03,16,04,20,1025.37
2016,03,16,04,21,1025.37
2016,03,16,04,22,1025.40
2016,03,16,04,23,1025.43
2016,03,16,04,24,1025.43
2016,03,16,04,25,1025.43
2016,03,16,04,26,1025.40
2016,03,16,04,27,1025.40
2016,03,16,04,28,1025.40
2016,03,16,04,29,1025.40
2016,03,16,04,30,1025.37
2016,03,16,04,31,1025.40
2016,03,16,04,32,1025.40
2016,03,16,04,33,1025.43
2016,03,16,04,34,1025.40
2016,03,16,04,35,1025.40
2016,03,16,04,36,1025.43
2016,03,16,04,37,1025.40
2016,03,16,04,38,1025.40
2016,03,16,04,39,1025.47
2016,03,16,04,40,1025.47
2016,03,16,04,41,1025.47
2016,03,16,04,42,1025.43
2016,03,16,04,43,1025.47
2016,03,16,04,44,1025.47
2016,03,16,04,45,1025.43
2016,03,16,04,46,1025.47
2016,03,16,04,47,1025.50
2016,03,16,04,48,1025.50
2016,03,16,04,49,1025.53
2016,03,16,04,50,1025.57
2016,03,16,04,51,1025.53
2016,03,16,04,52,1025.60
2016,03,16,04,53,1025.57
2016,03,16,04,54,1025.60
2016,03,16,04,55,1025.64
2016,03,16,04,56,1025.60
2016,03,16,04,57,1025.60
2016,03,16,04,58,1025.60
2016,03,16,04,59,1025.60
2016,03,16,05,00,1025.60
2016,03,16,05,01,1025.60
2016,03,16,05,02,1025.57
2016,03,16,05,03,1025.60
2016,03,16,05,04,1025.60
2016,03,16,05,05,1025.60
2016,03,16,05,06,1025.60
2016,03,16,05,07,1025.60
2016,03,16,05,08,1025.57
2016,03,16,05,09,1025.60
2016,03,16,05,10,1025.64
2016,03,16,05,11,1025.67
2016,03,16,05,12,1025.67
2016,03,16,05,13,1025.74
2016,03,16,05,14,1025.70
2016,03,16,05,15,1025.67
2016,03,16,05,16,1025.70
2016,03,16,05,17,1025.70
2016,03,16,05,18,1025.67
2016,03,16,05,19,1025.67
2016,03,16,05,20,1025.64
2016,03,16,05,21,1025.60
2016,03,16,05,22,1025.67
2016,03,16,05,23,1025.70
2016,03,16,05,24,1025.74
2016,03,16,05,25,1025.70
2016,03,16,05,26,1025.74
2016,03,16,05,27,1025.77
2016,03,16,05,28,1025.77
2016,03,16,05,29,1025.77
2016,03,16,05,30,1025.77
2016,03,16,05,31,1025.77
2016,03,16,05,32,1025.74
2016,03,16,05,33,1025.74
2016,03,16,05,34,1025.81
2016,03,16,05,35,1025.81
2016,03,16,05,36,1025.81
2016,03,16,05,37,1025.77
2016,03,16,05,38,1025.77
2016,03,16,05,39,1025.77
2016,03,16,05,40,1025.77
2016,03,16,05,41,1025.77
2016,03,16,05,42,1025.81
2016,03,16,05,43,1025.84
2016,03,16,05,44,1025.87
2016,03,16,05,45,1025.91
2016,03,16,05,46,1025.84
2016,03,16,05,47,1025.84
2016,03,16,05,48,1025.84
2016,03,16,05,49,1025.87
2016,03,16,05,50,1025.87
2016,03,16,05,51,1025.87
2016,03,16,05,52,1025.87
2016,03,16,05,53,1025.84
2016,03,16,05,54,1025.87
2016,03,16,05,55,1025.87
2016,03,16,05,56,1025.84
2016,03,16,05,57,1025.87
2016,03,16,05,58,1025.91
2016,03,16,05,59,1025.91
2016,03,16,06,00,1025.94
2016,03,16,06,01,1026.01
2016,03,16,06,02,1025.97
2016,03,16,06,03,1025.97
2016,03,16,06,04,1025.94
2016,03,16,06,05,1025.97
2016,03,16,06,06,1025.91
2016,03,16,06,07,1025.94
2016,03,16,06,08,1025.91
2016,03,16,06,09,1026.01
2016,03,16,06,10,1026.01
2016,03,16,06,11,1026.01
2016,03,16,06,12,1026.01
2016,03,16,06,13,1025.91
2016,03,16,06,14,1025.97
2016,03,16,06,15,1025.97
2016,03,16,06,16,1026.04
2016,03,16,06,17,1026.04
2016,03,16,06,18,1026.04
2016,03,16,06,19,1026.08
2016,03,16,06,20,1026.08
2016,03,16,06,21,1026.14
2016,03,16,06,22,1026.14
2016,03,16,06,23,1026.14
2016,03,16,06,24,1026.18
2016,03,16,06,25,1026.21
2016,03,16,06,26,1026.21
2016,03,16,06,27,1026.18
2016,03,16,06,28,1026.21
2016,03,16,06,29,1026.25
2016,03,16,06,30,1026.25
2016,03,16,06,31,1026.25
2016,03,16,06,32,1026.28
2016,03,16,06,33,1026.31
2016,03,16,06,34,1026.31
2016,03,16,06,35,1026.28
2016,03,16,06,36,1026.31
2016,03,16,06,37,1026.28
2016,03,16,06,38,1026.31
2016,03,16,06,39,1026.28
2016,03,16,06,40,1026.25
2016,03,16,06,41,1026.25
2016,03,16,06,42,1026.25
2016,03,16,06,43,1026.28
2016,03,16,06,44,1026.31
2016,03,16,06,45,1026.28
2016,03,16,06,46,1026.35
2016,03,16,06,47,1026.35
2016,03,16,06,48,1026.41
2016,03,16,06,49,1026.38
2016,03,16,06,50,1026.45
2016,03,16,06,51,1026.41
2016,03,16,06,52,1026.41
2016,03,16,06,53,1026.41
2016,03,16,06,54,1026.31
2016,03,16,06,55,1026.31
2016,03,16,06,56,1026.25
2016,03,16,06,57,1026.35
2016,03,16,06,58,1026.35
2016,03,16,06,59,1026.35
2016,03,16,07,00,1026.35
2016,03,16,07,01,1026.35
2016,03,16,07,02,1026.31
2016,03,16,07,03,1026.31
2016,03,16,07,04,1026.38
2016,03,16,07,05,1026.41
2016,03,16,07,06,1026.45
2016,03,16,07,07,1026.45
2016,03,16,07,08,1026.52
2016,03,16,07,09,1026.58
2016,03,16,07,10,1026.55
2016,03,16,07,11,1026.55
2016,03,16,07,12,1026.55
2016,03,16,07,13,1026.55
2016,03,16,07,14,1026.55
2016,03,16,07,15,1026.58
2016,03,16,07,16,1026.52
2016,03,16,07,17,1026.48
2016,03,16,07,18,1026.52
2016,03,16,07,19,1026.55
2016,03,16,07,20,1026.52
2016,03,16,07,21,1026.52
2016,03,16,07,22,1026.55
2016,03,16,07,23,1026.55
2016,03,16,07,24,1026.52
2016,03,16,07,25,1026.52
2016,03,16,07,26,1026.55
2016,03,16,07,27,1026.62
2016,03,16,07,28,1026.62
2016,03,16,07,29,1026.62
2016,03,16,07,30,1026.62
2016,03,16,07,31,1026.62
2016,03,16,07,32,1026.65
2016,03,16,07,33,1026.62
2016,03,16,07,34,1026.69
2016,03,16,07,35,1026.69
2016,03,16,07,36,1026.69
2016,03,16,07,37,1026.72
2016,03,16,07,38,1026.72
2016,03,16,07,39,1026.69
2016,03,16,07,40,1026.65
2016,03,16,07,41,1026.62
2016,03,16,07,42,1026.65
2016,03,16,07,43,1026.65
2016,03,16,07,44,1026.62
2016,03,16,07,45,1026.69
2016,03,16,07,46,1026.65
2016,03,16,07,47,1026.58
2016,03,16,07,48,1026.58
2016,03,16,07,49,1026.58
2016,03,16,07,50,1026.55
2016,03,16,07,51,1026.58
2016,03,16,07,52,1026.58
2016,03,16,07,53,1026.62
2016,03,16,07,54,1026.65
2016,03,16,07,55,1026.69
2016,03,16,07,56,1026.65
2016,03,16,07,57,1026.69
2016,03,16,07,58,1026.65
2016,03,16,07,59,1026.72
2016,03,16,08,00,1026.69
2016,03,16,08,01,1026.65
2016,03,16,08,02,1026.65
2016,03,16,08,03,1026.72
2016,03,16,08,04,1026.69
2016,03,16,08,05,1026.69
2016,03,16,08,06,1026.72
2016,03,16,08,07,1026.65
2016,03,16,08,08,1026.72
2016,03,16,08,09,1026.65
2016,03,16,08,10,1026.72
2016,03,16,08,11,1026.72
2016,03,16,08,12,1026.72
2016,03,16,08,13,1026.69
2016,03,16,08,14,1026.72
2016,03,16,08,15,1026.72
2016,03,16,08,16,1026.65
2016,03,16,08,17,1026.72
2016,03,16,08,18,1026.75
2016,03,16,08,19,1026.75
2016,03,16,08,20,1026.72
2016,03,16,08,21,1026.69
2016,03,16,08,22,1026.72
2016,03,16,08,23,1026.72
2016,03,16,08,24,1026.72
2016,03,16,08,25,1026.72
2016,03,16,08,26,1026.72
2016,03,16,08,27,1026.75
2016,03,16,08,28,1026.79
2016,03,16,08,29,1026.79
2016,03,16,08,30,1026.72
2016,03,16,08,31,1026.75
2016,03,16,08,32,1026.75
2016,03,16,08,33,1026.72
2016,03,16,08,34,1026.79
2016,03,16,08,35,1026.72
2016,03,16,08,36,1026.72
2016,03,16,08,37,1026.72
2016,03,16,08,38,1026.65
2016,03,16,08,39,1026.69
2016,03,16,08,40,1026.82
2016,03,16,08,41,1026.82
2016,03,16,08,42,1026.79
2016,03,16,08,43,1026.72
2016,03,16,08,44,1026.75
2016,03,16,08,45,1026.72
2016,03,16,08,46,1026.69
2016,03,16,08,47,1026.69
2016,03,16,08,48,1026.69
2016,03,16,08,49,1026.72
2016,03,16,08,50,1026.72
2016,03,16,08,51,1026.69
2016,03,16,08,52,1026.69
2016,03,16,08,53,1026.69
2016,03,16,08,54,1026.72
2016,03,16,08,55,1026.75
2016,03,16,08,56,1026.72
2016,03,16,08,57,1026.75
2016,03,16,08,58,1026.79
2016,03,16,08,59,1026.79
2016,03,16,09,00,1026.79
2016,03,16,09,01,1026.79
2016,03,16,09,02,1026.82
2016,03,16,09,03,1026.82
2016,03,16,09,04,1026.82
2016,03,16,09,05,1026.89
2016,03,16,09,06,1026.89
2016,03,16,09,07,1026.86
2016,03,16,09,08,1026.86
2016,03,16,09,09,1026.86
2016,03,16,09,10,1026.89
2016,03,16,09,11,1026.89
2016,03,16,09,12,1026.96
2016,03,16,09,13,1026.92
2016,03,16,09,14,1026.96
2016,03,16,09,15,1026.96
2016,03,16,09,16,1026.92
2016,03,16,09,17,1026.92
2016,03,16,09,18,1026.96
2016,03,16,09,19,1026.89
2016,03,16,09,20,1026.92
2016,03,16,09,21,1026.92
2016,03,16,09,22,1026.92
2016,03,16,09,23,1026.99
2016,03,16,09,24,1026.96
2016,03,16,09,25,1026.96
2016,03,16,09,26,1026.96
2016,03,16,09,27,1026.96
2016,03,16,09,28,1026.99
2016,03,16,09,29,1027.02
2016,03,16,09,30,1027.02
2016,03,16,09,31,1027.02
2016,03,16,09,32,1026.99
2016,03,16,09,33,1027.02
2016,03,16,09,34,1026.96
2016,03,16,09,35,1026.96
2016,03,16,09,36,1026.96
2016,03,16,09,37,1026.96
2016,03,16,09,38,1026.96
2016,03,16,09,39,1026.99
2016,03,16,09,40,1026.99
2016,03,16,09,41,1026.99
2016,03,16,09,42,1027.02
2016,03,16,09,43,1026.99
2016,03,16,09,44,1026.99
2016,03,16,09,45,1027.02
2016,03,16,09,46,1027.06
2016,03,16,09,47,1026.96
2016,03,16,09,48,1026.96
2016,03,16,09,49,1026.96
2016,03,16,09,50,1026.96
2016,03,16,09,51,1026.96
2016,03,16,09,52,1026.99
2016,03,16,09,53,1026.96
2016,03,16,09,54,1027.02
2016,03,16,09,55,1026.99
2016,03,16,09,56,1027.02
2016,03,16,09,57,1026.96
2016,03,16,09,58,1027.02
2016,03,16,09,59,1026.99
2016,03,16,10,00,1026.99
2016,03,16,10,01,1027.06
2016,03,16,10,02,1027.02
2016,03,16,10,03,1027.09
2016,03,16,10,04,1027.13
2016,03,16,10,05,1027.16
2016,03,16,10,06,1027.13
2016,03,16,10,07,1027.13
2016,03,16,10,08,1027.16
2016,03,16,10,09,1027.13
2016,03,16,10,10,1027.13
2016,03,16,10,11,1027.13
2016,03,16,10,12,1027.09
2016,03,16,10,13,1027.13
2016,03,16,10,14,1027.09
2016,03,16,10,15,1027.13
2016,03,16,10,16,1027.13
2016,03,16,10,17,1027.13
2016,03,16,10,18,1027.16
2016,03,16,10,19,1027.16
2016,03,16,10,20,1027.13
2016,03,16,10,21,1027.19
2016,03,16,10,22,1027.16
2016,03,16,10,23,1027.16
2016,03,16,10,24,1027.13
2016,03,16,10,25,1027.13
2016,03,16,10,26,1027.13
2016,03,16,10,27,1027.09
2016,03,16,10,28,1027.09
2016,03,16,10,29,1027.09
2016,03,16,10,30,1027.09
2016,03,16,10,31,1027.09
2016,03,16,10,32,1027.09
2016,03,16,10,33,1027.16
2016,03,16,10,34,1027.19
2016,03,16,10,35,1027.19
2016,03,16,10,36,1027.23
2016,03,16,10,37,1027.23
2016,03,16,10,38,1027.19
2016,03,16,10,39,1027.26
2016,03,16,10,40,1027.19
2016,03,16,10,41,1027.23
2016,03,16,10,42,1027.19
2016,03,16,10,43,1027.23
2016,03,16,10,44,1027.23
2016,03,16,10,45,1027.23
2016,03,16,10,46,1027.26
2016,03,16,10,47,1027.33
2016,03,16,10,48,1027.26
2016,03,16,10,49,1027.30
2016,03,16,10,50,1027.30
2016,03,16,10,51,1027.30
2016,03,16,10,52,1027.33
2016,03,16,10,53,1027.33
2016,03,16,10,54,1027.36
2016,03,16,10,55,1027.36
2016,03,16,10,56,1027.33
2016,03,16,10,57,1027.36
2016,03,16,10,58,1027.30
2016,03,16,10,59,1027.33
2016,03,16,11,00,1027.33
2016,03,16,11,01,1027.36
2016,03,16,11,02,1027.40
2016,03,16,11,03,1027.43
2016,03,16,11,04,1027.43
2016,03,16,11,05,1027.43
2016,03,16,11,06,1027.46
2016,03,16,11,07,1027.46
2016,03,16,11,08,1027.46
2016,03,16,11,09,1027.46
2016,03,16,11,10,1027.50
2016,03,16,11,11,1027.46
2016,03,16,11,12,1027.53
2016,03,16,11,13,1027.46
2016,03,16,11,14,1027.46
2016,03,16,11,15,1027.50
2016,03,16,11,16,1027.50
2016,03,16,11,17,1027.50
2016,03,16,11,18,1027.46
2016,03,16,11,19,1027.46
2016,03,16,11,20,1027.43
2016,03,16,11,21,1027.43
2016,03,16,11,22,1027.40
2016,03,16,11,23,1027.40
2016,03,16,11,24,1027.43
2016,03,16,11,25,1027.46
2016,03,16,11,26,1027.46
2016,03,16,11,27,1027.43
2016,03,16,11,28,1027.40
2016,03,16,11,29,1027.46
2016,03,16,11,30,1027.40
2016,03,16,11,31,1027.46
2016,03,16,11,32,1027.43
2016,03,16,11,33,1027.40
2016,03,16,11,34,1027.40
2016,03,16,11,35,1027.43
2016,03,16,11,36,1027.40
2016,03,16,11,37,1027.43
2016,03,16,11,38,1027.46
2016,03,16,11,39,1027.43
2016,03,16,11,40,1027.50
2016,03,16,11,41,1027.40
2016,03,16,11,42,1027.43
2016,03,16,11,43,1027.43
2016,03,16,11,44,1027.46
2016,03,16,11,45,1027.50
2016,03,16,11,46,1027.53
2016,03,16,11,47,1027.53
2016,03,16,11,48,1027.57
2016,03,16,11,49,1027.57
2016,03,16,11,50,1027.57
2016,03,16,11,51,1027.60
2016,03,16,11,52,1027.57
2016,03,16,11,53,1027.60
2016,03,16,11,54,1027.60
2016,03,16,11,55,1027.60
2016,03,16,11,56,1027.60
2016,03,16,11,57,1027.60
2016,03,16,11,58,1027.63
2016,03,16,11,59,1027.67
2016,03,16,12,00,1027.63
2016,03,16,12,01,1027.60
2016,03,16,12,02,1027.67
2016,03,16,12,03,1027.60
2016,03,16,12,04,1027.63
2016,03,16,12,05,1027.53
2016,03,16,12,06,1027.57
2016,03,16,12,07,1027.57
2016,03,16,12,08,1027.60
2016,03,16,12,09,1027.60
2016,03,16,12,10,1027.57
2016,03,16,12,11,1027.60
2016,03,16,12,12,1027.57
2016,03,16,12,13,1027.57
2016,03,16,12,14,1027.63
2016,03,16,12,15,1027.60
2016,03,16,12,16,1027.57
2016,03,16,12,17,1027.60
2016,03,16,12,18,1027.53
2016,03,16,12,19,1027.57
2016,03,16,12,20,1027.60
2016,03,16,12,21,1027.57
2016,03,16,12,22,1027.53
2016,03,16,12,23,1027.53
2016,03,16,12,24,1027.53
2016,03,16,12,25,1027.53
2016,03,16,12,26,1027.53
2016,03,16,12,27,1027.57
2016,03,16,12,28,1027.57
2016,03,16,12,29,1027.57
2016,03,16,12,30,1027.60
2016,03,16,12,31,1027.57
2016,03,16,12,32,1027.53
2016,03,16,12,33,1027.53
2016,03,16,12,34,1027.50
2016,03,16,12,35,1027.50
2016,03,16,12,36,1027.50
2016,03,16,12,37,1027.50
2016,03,16,12,38,1027.50
2016,03,16,12,39,1027.43
2016,03,16,12,40,1027.46
2016,03,16,12,41,1027.43
2016,03,16,12,42,1027.43
2016,03,16,12,43,1027.36
2016,03,16,12,44,1027.40
2016,03,16,12,45,1027.33
2016,03,16,12,46,1027.36
2016,03,16,12,47,1027.36
2016,03,16,12,48,1027.36
2016,03,16,12,49,1027.33
2016,03,16,12,50,1027.36
2016,03,16,12,51,1027.33
2016,03,16,12,52,1027.33
2016,03,16,12,53,1027.33
2016,03,16,12,54,1027.43
2016,03,16,12,55,1027.33
2016,03,16,12,56,1027.40
2016,03,16,12,57,1027.33
2016,03,16,12,58,1027.33
2016,03,16,12,59,1027.33
2016,03,16,13,00,1027.30
2016,03,16,13,01,1027.30
2016,03,16,13,02,1027.33
2016,03,16,13,03,1027.36
2016,03,16,13,04,1027.30
2016,03,16,13,05,1027.30
2016,03,16,13,06,1027.30
2016,03,16,13,07,1027.36
2016,03,16,13,08,1027.33
2016,03,16,13,09,1027.36
2016,03,16,13,10,1027.33
2016,03,16,13,11,1027.33
2016,03,16,13,12,1027.33
2016,03,16,13,13,1027.33
2016,03,16,13,14,1027.26
2016,03,16,13,15,1027.23
2016,03,16,13,16,1027.23
2016,03,16,13,17,1027.19
2016,03,16,13,18,1027.23
2016,03,16,13,19,1027.19
2016,03,16,13,20,1027.19
2016,03,16,13,21,1027.16
2016,03,16,13,22,1027.13
2016,03,16,13,23,1027.19
2016,03,16,13,24,1027.13
2016,03,16,13,25,1027.16
2016,03,16,13,26,1027.13
2016,03,16,13,27,1027.16
2016,03,16,13,28,1027.16
2016,03,16,13,29,1027.16
2016,03,16,13,30,1027.16
2016,03,16,13,31,1027.16
2016,03,16,13,32,1027.16
2016,03,16,13,33,1027.13
2016,03,16,13,34,1027.09
2016,03,16,13,35,1027.16
2016,03,16,13,36,1027.13
2016,03,16,13,37,1027.16
2016,03,16,13,38,1027.13
2016,03,16,13,39,1027.19
2016,03,16,13,40,1027.13
2016,03,16,13,41,1027.13
2016,03,16,13,42,1027.13
2016,03,16,13,43,1027.16
2016,03,16,13,44,1027.13
2016,03,16,13,45,1027.13
2016,03,16,13,46,1027.13
2016,03,16,13,47,1027.13
2016,03,16,13,48,1027.09
2016,03,16,13,49,1027.09
2016,03,16,13,50,1027.09
2016,03,16,13,51,1027.06
2016,03,16,13,52,1027.13
2016,03,16,13,53,1027.02
2016,03,16,13,54,1027.06
2016,03,16,13,55,1027.02
2016,03,16,13,56,1027.06
2016,03,16,13,57,1027.02
2016,03,16,13,58,1027.02
2016,03,16,13,59,1027.06
2016,03,16,14,00,1027.02
2016,03,16,14,01,1027.06
2016,03,16,14,02,1027.06
2016,03,16,14,03,1027.02
2016,03,16,14,04,1027.02
2016,03,16,14,05,1027.02
2016,03,16,14,06,1027.02
2016,03,16,14,07,1027.06
2016,03,16,14,08,1026.96
2016,03,16,14,09,1026.99
2016,03,16,14,10,1027.06
2016,03,16,14,11,1026.99
2016,03,16,14,12,1026.99
2016,03,16,14,13,1026.99
2016,03,16,14,14,1026.96
2016,03,16,14,15,1026.96
2016,03,16,14,16,1026.89
2016,03,16,14,17,1026.92
2016,03,16,14,18,1026.92
2016,03,16,14,19,1026.92
2016,03,16,14,20,1026.86
2016,03,16,14,21,1026.82
2016,03,16,14,22,1026.82
2016,03,16,14,23,1026.79
2016,03,16,14,24,1026.86
2016,03,16,14,25,1026.79
2016,03,16,14,26,1026.72
2016,03,16,14,27,1026.72
2016,03,16,14,28,1026.72
2016,03,16,14,29,1026.69
2016,03,16,14,30,1026.62
2016,03,16,14,31,1026.65
2016,03,16,14,32,1026.58
2016,03,16,14,33,1026.62
2016,03,16,14,34,1026.69
2016,03,16,14,35,1026.58
2016,03,16,14,36,1026.62
2016,03,16,14,37,1026.58
2016,03,16,14,38,1026.55
2016,03,16,14,39,1026.52
2016,03,16,14,40,1026.52
2016,03,16,14,41,1026.45
2016,03,16,14,42,1026.45
2016,03,16,14,43,1026.45
2016,03,16,14,44,1026.45
2016,03,16,14,45,1026.48
2016,03,16,14,46,1026.48
2016,03,16,14,47,1026.45
2016,03,16,14,48,1026.48
2016,03,16,14,49,1026.48
2016,03,16,14,50,1026.52
2016,03,16,14,51,1026.52
2016,03,16,14,52,1026.48
2016,03,16,14,53,1026.48
2016,03,16,14,54,1026.45
2016,03,16,14,55,1026.52
2016,03,16,14,56,1026.48
2016,03,16,14,57,1026.48
2016,03,16,14,58,1026.52
2016,03,16,14,59,1026.45
2016,03,16,15,00,1026.45
2016,03,16,15,01,1026.48
2016,03,16,15,02,1026.45
2016,03,16,15,03,1026.45
2016,03,16,15,04,1026.48
2016,03,16,15,05,1026.45
2016,03,16,15,06,1026.45
2016,03,16,15,07,1026.52
2016,03,16,15,08,1026.48
2016,03,16,15,09,1026.52
2016,03,16,15,10,1026.52
2016,03,16,15,11,1026.48
2016,03,16,15,12,1026.45
2016,03,16,15,13,1026.52
2016,03,16,15,14,1026.48
2016,03,16,15,15,1026.45
2016,03,16,15,16,1026.52
2016,03,16,15,17,1026.48
2016,03,16,15,18,1026.52
2016,03,16,15,19,1026.58
2016,03,16,15,20,1026.55
2016,03,16,15,21,1026.55
2016,03,16,15,22,1026.58
2016,03,16,15,23,1026.65
2016,03,16,15,24,1026.65
2016,03,16,15,25,1026.69
2016,03,16,15,26,1026.65
2016,03,16,15,27,1026.69
2016,03,16,15,28,1026.69
2016,03,16,15,29,1026.69
2016,03,16,15,30,1026.69
2016,03,16,15,31,1026.65
2016,03,16,15,32,1026.69
2016,03,16,15,33,1026.69
2016,03,16,15,34,1026.65
2016,03,16,15,35,1026.65
2016,03,16,15,36,1026.65
2016,03,16,15,37,1026.62
2016,03,16,15,38,1026.62
2016,03,16,15,39,1026.58
2016,03,16,15,40,1026.62
2016,03,16,15,41,1026.55
2016,03,16,15,42,1026.55
2016,03,16,15,43,1026.55
2016,03,16,15,44,1026.52
2016,03,16,15,45,1026.55
2016,03,16,15,46,1026.55
2016,03,16,15,47,1026.58
2016,03,16,15,48,1026.55
2016,03,16,15,49,1026.58
2016,03,16,15,50,1026.58
2016,03,16,15,51,1026.58
2016,03,16,15,52,1026.55
2016,03,16,15,53,1026.58
2016,03,16,15,54,1026.58
2016,03,16,15,55,1026.55
2016,03,16,15,56,1026.52